[[{"header":{"parameterUnit":"m.s-1","parameterCategory":1,"la1":30.2991,"la2":30.254,"lo1":-89.0895,"lo2":-89.0444,"dy":0.0017,"dx":0.0017,"nx":28,"ny":28,"refTime":"2024-05-16T21:00:00:Z","depth":0,"parameterNumber":2,"parameterNumberName":"U-component_of_WINDS"},"data":[0,0,0,0,0,0,0,0,0,0,0,0,0,0,0,0,0,0,0,0,0,0,0,0,0,0,0,0,0,0,0,0,0,0,0,0,0,0,0,0,0,0,0,0,0,0,0,0,0,0,0,0,0,0,0,0,0,0,-2.0787,-2.0789,0,-2.097,-2.0972,-2.0975,-2.0877,-2.0872,-2.0867,-2.0863,-2.1057,-2.1066,-2.1076,0,0,0,0,0,0,0,0,0,0,0,0,0,-2.0359,-2.0367,-2.0787,-2.0789,-2.0792,-2.097,-2.0973,-2.0975,-2.0878,-2.0872,-2.0866,-2.086,-2.1054,-2.1065,-2.1077,0,0,0,0,0,0,0,0,0,0,0,0,0,-2.0544,-2.037,-2.0787,-2.0765,-2.0764,-2.0969,-2.0973,-2.0976,-2.0879,-2.0872,-2.0864,-2.0857,-2.105,-2.1064,-2.1078,-2.1318,0,0,-2.1123,-2.113,0,0,0,0,0,0,0,0,-2.0533,-2.056,-2.0766,-2.0767,-2.0767,-2.0893,-2.0892,-2.1091,-2.0881,-2.0836,-2.0862,-2.0854,-2.1009,-2.1026,-2.1077,-2.1327,-2.1335,-2.1125,-2.1133,-2.114,-2.1144,0,0,0,0,0,0,0,-2.0521,-2.0551,-2.086,-2.0769,-2.0769,-2.0747,-2.0765,-2.093,-2.0962,-2.0839,-2.0833,-2.0855,-2.1008,-2.1063,-2.1081,-2.1338,-2.1124,-2.1137,-2.1146,-2.1152,-2.1793,-2.1801,0,0,0,0,0,0,-2.0508,-2.0541,-2.0854,-2.0865,-2.0629,-2.0761,-2.0781,-2.086,-2.096,-2.0968,-2.0861,-2.085,-2.1042,-2.1064,-2.1088,-2.1374,-2.114,-2.1153,-2.1162,-2.1785,-2.1795,-2.1804,0,0,0,0,0,0,-2.0499,-2.0537,-2.0847,-2.0701,-2.0739,-2.0776,-2.0866,-2.0868,-2.0923,-2.0976,-2.0982,-2.0912,-2.1037,-2.1067,-2.1261,-2.138,-2.116,-2.1173,-2.1775,-2.1788,-2.1799,-2.195,0,0,0,0,0,0,-2.0488,-2.0534,-2.0625,-2.0704,-2.0747,-2.1016,-2.0873,-2.0877,-2.0948,-2.0935,-2.1026,-2.1034,-2.1033,-2.1239,-2.1275,-2.1396,-2.1185,-2.1765,-2.1781,-2.1795,-2.1935,-2.1966,-2.1993,0,0,0,0,0,-2.0473,-2.0662,-2.063,-2.0668,-2.0861,-2.1023,-2.1048,-2.1042,-2.0958,-2.105,-2.1084,-2.1031,-2.136,-2.126,-2.13,-2.1427,-2.1757,-2.1776,-2.1794,-2.1922,-2.196,-2.1992,0,0,0,0,0,0,-2.0598,-2.0672,-2.0637,-2.0857,-2.0934,-2.1006,-2.1122,-2.1082,-2.1187,-2.117,-2.116,-2.1182,-2.1383,-2.1424,-2.1311,-2.1663,-2.1546,-2.1573,-2.1629,-2.1666,-2.1695,-2.1682,-2.1197,0,0,0,0,0,-2.0651,-2.0774,-2.0833,-2.1021,-2.1061,-2.1085,-2.1155,-2.1144,-2.1224,-2.1257,-2.1305,-2.1387,-2.1508,-2.1589,-2.1704,-2.1939,-2.1958,-2.2046,-2.2075,-2.2099,-2.2123,-2.2251,-2.2291,-2.1864,-2.1864,-2.1864,0,0,-2.0762,-2.0817,-2.0897,-2.1048,-2.1106,-2.1236,-2.1113,-2.1256,-2.1353,-2.1279,-2.1465,-2.1503,-2.1593,-2.1809,-2.1906,-2.1849,-2.2245,-2.2122,-2.2141,-2.2153,-2.2274,-2.2315,-2.235,-2.1877,-2.1875,-2.1873,0,0,-2.1031,-2.1085,-2.1248,-2.1308,-2.1397,-2.1411,-2.145,-2.1528,-2.155,-2.1735,-2.1682,-2.1798,-2.2008,-2.2074,-2.2136,-2.2428,-2.2384,-2.2466,-2.2619,-2.2744,-2.2778,-2.2807,-2.2913,-2.2951,-2.249,-2.249,-2.2491,0,-2.1159,-2.1351,-2.1337,-2.1484,-2.1552,-2.1488,-2.1654,-2.1714,-2.1837,-2.1886,-2.182,-2.2081,-2.2138,-2.2368,-2.2439,-2.249,-2.2536,-2.2457,-2.2773,-2.2803,-2.2831,-2.2931,-2.2971,-2.25,-2.2499,-2.2498,-2.2497,0,-2.1504,-2.1638,-2.1759,-2.1876,-2.1958,-2.2114,-2.2125,-2.221,-2.2191,-2.2213,-2.2403,-2.2467,-2.2594,-2.2648,-2.2632,-2.2876,-2.2838,-2.2773,-2.2655,-2.2881,-2.2976,-2.3014,-2.2514,-2.251,-2.2507,-2.2505,0,0,-2.186,-2.1966,-2.2011,-2.2063,-2.2155,-2.226,-2.2412,-2.2534,-2.2607,-2.2694,-2.2823,-2.3001,-2.2941,-2.3011,-2.3001,-2.311,-2.3339,-2.3032,-2.3034,-2.3088,-2.3614,-2.3663,-2.3708,-2.3309,-2.3316,-2.3322,-2.3607,0,-2.2136,-2.2401,-2.2392,-2.264,-2.2764,-2.2704,-2.2837,-2.2909,-2.2934,-2.3044,-2.3071,-2.3197,-2.3108,-2.3149,-2.3255,-2.3289,-2.3445,-2.3268,-2.3431,-2.3437,-2.3412,-2.3757,-2.3811,-2.4076,-2.3643,-2.3649,-2.3654,0,-2.2494,-2.259,-2.2849,-2.2922,-2.2974,-2.3094,-2.3204,-2.3309,-2.339,-2.34,-2.3477,-2.345,-2.3607,-2.3483,-2.3699,-2.3579,-2.3645,-2.3672,-2.3682,-2.3699,-2.3561,-2.3785,-2.416,-2.4201,-2.3712,-2.3707,-2.3703,0,-2.2728,-2.2923,-2.3103,-2.3149,-2.3239,-2.3324,-2.3366,-2.3439,-2.3513,-2.361,-2.3658,-2.3773,-2.3837,-2.3927,-2.3932,-2.3842,-2.4152,-2.4028,-2.4166,-2.4166,-2.4236,-2.4232,-2.4629,-2.4276,-2.4275,-2.4274,-2.4274,0,-2.3039,-2.32,-2.3209,-2.332,-2.3499,-2.3488,-2.3667,-2.37,-2.3766,-2.3884,-2.3839,-2.3951,-2.395,-2.4065,-2.407,-2.4249,-2.4278,-2.4292,-2.4292,-2.4297,-2.4296,-2.4342,-2.4324,-2.4285,-2.4283,-2.4281,-2.4279,0,-2.3332,-2.3344,-2.3537,-2.3605,-2.3625,-2.3755,-2.3814,-2.3921,-2.3939,-2.4089,-2.4124,-2.4155,-2.4287,-2.4301,-2.4456,-2.4459,-2.4676,-2.4655,-2.4648,-2.4645,-2.4783,-2.4771,-2.5226,-2.5285,-2.4891,-2.4895,-2.4898,0,-2.353,-2.3652,-2.3732,-2.3807,-2.3853,-2.3974,-2.4048,-2.4041,-2.4121,-2.4221,-2.4316,-2.4443,-2.4545,-2.476,-2.4798,-2.4916,-2.4899,-2.505,-2.4917,-2.4919,-2.4904,-2.4897,-2.491,-2.5077,-2.5081,-2.5085,-2.5088,0,-2.388,-2.3879,-2.3986,-2.4097,-2.4185,-2.4272,-2.4353,-2.4418,-2.4421,-2.4513,-2.4646,-2.4725,-2.4882,-2.501,-2.5126,-2.5171,-2.5132,-2.5129,-2.5167,-2.5175,-2.5167,-2.5175,-2.4721,-2.5119,-2.5116,-2.5114,-2.5112,-2.5111,-2.4133,-2.4238,-2.4311,-2.4432,-2.4492,-2.4568,-2.4672,-2.4702,-2.4813,-2.4938,-2.4928,-2.5076,-2.5154,-2.5305,-2.5358,-2.5476,-2.5425,-2.5481,-2.5495,-2.551,-2.5524,-2.5146,-2.5497,-2.5496,-2.5495,-2.5494,-2.5494,0,-2.4482,-2.4525,-2.4636,-2.4749,-2.4845,-2.4796,-2.4883,-2.4967,-2.5097,-2.5171,-2.5272,-2.5426,-2.5549,-2.5596,-2.5717,-2.5802,-2.5787,-2.5834,-2.5829,-2.5841,-2.5562,-2.5517,-2.5844,-2.5844,-2.5844,-2.5844,-2.5844,-2.5844,-2.4674,-2.4851,-2.4859,-2.5065,-2.5108,-2.5251,-2.5305,-2.5376,-2.5435,-2.5608,-2.571,-2.5738,-2.5802,-2.5927,-2.6039,-2.6049,-2.6097,-2.6153,-2.6156,-2.5895,-2.586,-2.5826,-2.5784,-2.6163,-2.6163,-2.6425,-2.6428,-2.6429]},{"header":{"parameterUnit":"m.s-1","parameterCategory":1,"la1":30.2991,"la2":30.254,"lo1":-89.0895,"lo2":-89.0444,"dy":0.0017,"dx":0.0017,"nx":28,"ny":28,"refTime":"2024-05-16T21:00:00:Z","depth":0,"parameterNumber":3,"parameterNumberName":"V-component_of_WINDS"},"data":[0,0,0,0,0,0,0,0,0,0,0,0,0,0,0,0,0,0,0,0,0,0,0,0,0,0,0,0,0,0,0,0,0,0,0,0,0,0,0,0,0,0,0,0,0,0,0,0,0,0,0,0,0,0,0,0,0,0,1.3276,1.3277,0,1.332,1.3321,1.3321,1.3387,1.3388,1.3389,1.339,1.3432,1.3432,1.3432,0,0,0,0,0,0,0,0,0,0,0,0,0,1.3244,1.3244,1.3276,1.3277,1.3277,1.332,1.3321,1.3322,1.3387,1.3388,1.3389,1.3391,1.3432,1.3432,1.3432,0,0,0,0,0,0,0,0,0,0,0,0,0,1.327,1.3244,1.3276,1.3315,1.3319,1.332,1.3321,1.3322,1.3386,1.3388,1.339,1.3391,1.3432,1.3432,1.3432,1.3398,0,0,1.3432,1.3432,0,0,0,0,0,0,0,0,1.3268,1.3271,1.3309,1.3312,1.3317,1.335,1.3325,1.3347,1.3386,1.336,1.339,1.3392,1.3403,1.3406,1.341,1.34,1.3402,1.3432,1.3432,1.3433,1.3433,0,0,0,0,0,0,0,1.3267,1.327,1.3294,1.3309,1.3314,1.3329,1.3335,1.333,1.3371,1.3363,1.3368,1.3372,1.3406,1.341,1.3412,1.3402,1.3432,1.3433,1.3433,1.3433,1.3366,1.3364,0,0,0,0,0,0,1.3259,1.3268,1.3292,1.3295,1.3296,1.3328,1.3334,1.3337,1.3372,1.3379,1.3371,1.3375,1.3409,1.3411,1.3413,1.3375,1.3433,1.3433,1.3433,1.3368,1.3366,1.3364,0,0,0,0,0,0,1.3259,1.3261,1.329,1.3283,1.3288,1.3327,1.333,1.3337,1.3342,1.3378,1.3385,1.3368,1.341,1.3413,1.3402,1.3378,1.3433,1.3433,1.337,1.3367,1.3365,1.3299,0,0,0,0,0,0,1.3257,1.326,1.3249,1.3282,1.3288,1.3279,1.3328,1.3337,1.3342,1.3348,1.3377,1.3383,1.3412,1.3401,1.3402,1.3379,1.3433,1.3372,1.3369,1.3366,1.3304,1.3295,1.3287,0,0,0,0,0,1.3256,1.3228,1.3248,1.325,1.3274,1.3277,1.328,1.3315,1.334,1.3328,1.3351,1.3382,1.338,1.3399,1.34,1.3377,1.3374,1.337,1.3366,1.3308,1.3296,1.3287,0,0,0,0,0,0,1.319,1.3233,1.3255,1.3237,1.3253,1.3288,1.3274,1.3302,1.3311,1.3316,1.3357,1.3363,1.3346,1.3361,1.3381,1.3346,1.3382,1.3378,1.3337,1.3327,1.3319,1.3315,1.3433,0,0,0,0,0,1.3173,1.3173,1.3211,1.3191,1.3198,1.3234,1.3237,1.3262,1.328,1.3287,1.3309,1.3324,1.3327,1.3328,1.3332,1.3306,1.3313,1.3291,1.3282,1.3275,1.3271,1.3258,1.3248,1.335,1.335,1.3351,0,0,1.3138,1.3162,1.3159,1.3178,1.3193,1.3191,1.324,1.3236,1.3234,1.3286,1.3277,1.3293,1.3312,1.3293,1.3286,1.3305,1.3244,1.327,1.3264,1.3264,1.3253,1.3243,1.3234,1.3348,1.3348,1.3349,0,0,1.3075,1.3093,1.3078,1.3093,1.3116,1.314,1.3137,1.3167,1.3181,1.3172,1.3211,1.3209,1.3213,1.3225,1.3232,1.3172,1.3201,1.3172,1.3128,1.3115,1.3107,1.31,1.3078,1.307,1.3168,1.3168,1.3168,0,1.3028,1.3028,1.3067,1.3061,1.3067,1.3115,1.31,1.3112,1.3134,1.3137,1.3158,1.3165,1.3181,1.3165,1.315,1.3154,1.3151,1.3169,1.3105,1.3098,1.3092,1.3072,1.3064,1.3164,1.3165,1.3165,1.3166,0,1.297,1.2969,1.2955,1.2977,1.2982,1.2971,1.3007,1.3007,1.3032,1.3053,1.3043,1.3065,1.3074,1.3073,1.3096,1.306,1.3071,1.3098,1.3135,1.3078,1.306,1.3052,1.3159,1.316,1.3162,1.3162,0,0,1.2866,1.291,1.2903,1.2914,1.2942,1.2942,1.2932,1.2943,1.2942,1.2956,1.2948,1.2951,1.2976,1.2983,1.3009,1.2997,1.2947,1.3025,1.3026,1.301,1.2907,1.2887,1.2877,1.2967,1.2965,1.2964,1.2906,0,1.2808,1.2796,1.283,1.2809,1.2809,1.2854,1.2845,1.2861,1.2881,1.2882,1.2904,1.2905,1.2938,1.2943,1.2933,1.2955,1.2927,1.296,1.2959,1.2959,1.2953,1.2867,1.2846,1.2789,1.2899,1.2897,1.2897,0,1.2738,1.2749,1.2729,1.2758,1.2759,1.2751,1.2763,1.2764,1.2782,1.2798,1.2806,1.2836,1.2827,1.2863,1.2852,1.2873,1.2875,1.2885,1.2884,1.2885,1.2924,1.2866,1.2772,1.2763,1.2886,1.2887,1.2887,0,1.2664,1.2674,1.2663,1.267,1.2704,1.2697,1.2711,1.2731,1.2735,1.2745,1.2748,1.2756,1.276,1.2765,1.2796,1.2819,1.2781,1.2819,1.2792,1.2791,1.2782,1.2782,1.2687,1.2783,1.2784,1.2784,1.2784,0,1.2595,1.2581,1.263,1.2623,1.2607,1.2646,1.2629,1.2647,1.2665,1.2661,1.27,1.2695,1.2736,1.2736,1.276,1.2746,1.2748,1.2759,1.2766,1.2756,1.2754,1.2757,1.2761,1.2782,1.2782,1.2782,1.2783,0,1.251,1.2542,1.2533,1.2566,1.2574,1.2561,1.2589,1.2583,1.2605,1.26,1.2601,1.2635,1.2637,1.2668,1.2676,1.2692,1.2668,1.2682,1.2662,1.2667,1.2638,1.264,1.2541,1.253,1.2633,1.2632,1.2631,0,1.2464,1.2454,1.2486,1.2487,1.2499,1.25,1.2504,1.2541,1.2544,1.2564,1.2555,1.256,1.2566,1.2566,1.2591,1.2597,1.2611,1.2576,1.2612,1.2602,1.2609,1.2609,1.2608,1.2568,1.2566,1.2565,1.2564,0,1.2379,1.2395,1.2401,1.2411,1.2415,1.2425,1.2437,1.2435,1.2476,1.2477,1.248,1.2484,1.2492,1.2496,1.2506,1.2519,1.2548,1.2553,1.2547,1.2536,1.2525,1.253,1.2641,1.2555,1.2556,1.2557,1.2557,1.2558,1.2312,1.2305,1.2326,1.2331,1.2344,1.2354,1.235,1.2372,1.2375,1.2385,1.2407,1.2405,1.2423,1.244,1.245,1.2449,1.2467,1.2458,1.2456,1.2453,1.2447,1.2526,1.2451,1.2451,1.2452,1.2452,1.2452,0,1.2229,1.2245,1.2248,1.2264,1.2267,1.2295,1.231,1.231,1.2309,1.2323,1.2328,1.233,1.2334,1.2359,1.2365,1.2359,1.2373,1.236,1.236,1.2362,1.2431,1.2436,1.2349,1.2349,1.2349,1.2349,1.2349,1.2349,1.2186,1.2175,1.2194,1.2189,1.2205,1.2205,1.2211,1.222,1.2232,1.2233,1.2236,1.2253,1.2271,1.2279,1.2283,1.229,1.229,1.2273,1.2284,1.2348,1.2358,1.2367,1.2372,1.2273,1.2272,1.2215,1.2215,1.2214]}]]